Regional Weather Roundup
Issued by NWS Mobile, AL

Home | Current Version | Previous Version | Text Only | Print | Product List | Glossary On
Versions: 1 2 3 4 5 6 7 8 9 10 11 12 13 14 15 16 17 18 19 20 21 22 23 24 25 26 27 28 29 30 31 32 33 34 35 36 37 38 39 40 41 42 43 44 45 46 47 48 49 50
000
ASUS44 KMOB 041218
RWRMOB
REGIONAL WEATHER ROUNDUP
NATIONAL WEATHER SERVICE MOBILE AL
700 AM CDT MON MAY 04 2015

ALZ061>064-041300-
COASTAL ALABAMA


CITY           SKY/WX    TMP DP  RH WIND       PRES   REMARKS
MOBILE REG APT MOSUNNY   64  62  93 E5        30.17R
6HR MIN TEMP:  62; 6HR MAX TEMP:  66;

BROOKLEY FIELD SUNNY     68  63  84 E10       30.18R
6HR MIN TEMP:  64; 6HR MAX TEMP:  69;

GULF SHORES    SUNNY     64  64  97 NE5       30.16R
6HR MIN TEMP:  58; 6HR MAX TEMP:  70;


$$

ALZ051>060-041300-
INTERIOR SOUTHWEST AND SOUTH CENTRAL ALABAMA


CITY           SKY/WX    TMP DP  RH WIND       PRES   REMARKS
ANDALUSIA/OPP  SUNNY     64  59  83 SE3       30.23R HAZE
6HR MIN TEMP:  59; 6HR MAX TEMP:  64;

EVERGREEN      SUNNY     55  54  96 CALM      30.21R
6HR MIN TEMP:  53; 6HR MAX TEMP:  57;

FLORALA        FAIR      61  60  97 CALM      30.24R FOG
6HR MIN TEMP:  56; 6HR MAX TEMP:  61;

GREENVILLE     FAIR      58  54  86 CALM      30.22R
6HR MIN TEMP:  53; 6HR MAX TEMP:  61;


$$

FLZ001>006-041300-
WESTERN FLORIDA PANHANDLE


CITY           SKY/WX    TMP DP  RH WIND       PRES   REMARKS
CRESTVIEW      FOG       59  58  96 NE3       30.22R VSB 1/4
6HR MIN TEMP:  52; 6HR MAX TEMP:  59;

DESTIN         SUNNY     68  62  81 E7        30.19R
6HR MIN TEMP:  63; 6HR MAX TEMP:  68;

DUKE FIELD     FAIR      62  60  94 E5        30.19R
6HR MIN TEMP:  53; 6HR MAX TEMP:  62;

MARY ESTHER    SUNNY     66  62  86 NE5       30.17R
6HR MIN TEMP:  58; 6HR MAX TEMP:  67;

MILTON         SUNNY     64  59  83 E9        30.20R
6HR MIN TEMP:  58; 6HR MAX TEMP:  67;

PENSACOLA      SUNNY     66  63  90 E9        30.17R
6HR MIN TEMP:  63; 6HR MAX TEMP:  68;

NAS PENSACOLA  MOSUNNY   70  67  90 E10G18    30.16R
6HR MIN TEMP:  57; 6HR MAX TEMP:  70;

VALPARAISO     SUNNY     65  60  84 E7        30.19R
6HR MIN TEMP:  59; 6HR MAX TEMP:  65;


$$

...MARINE OBSERVATIONS...

STATION/POSITION TIME  SKY/WX   TEMP    WIND        PRES    VSBY
                                AIR SEA DIR/SP/G
                 (UTC)          (F)     (DEG/KT/KT) (MB)    (MI)
PASCAGOULA       1100            72     100/  3/  7 1019.5R
PETIT BOIS ISL   1100            72     110/ 10/ 12 1020.0R
E DAUPHIN ISLAND 1200            73     110/ 15/ 16 1020.9R
MIDDLE BAY LIGHT 1100            68      80/ 12     1019.3R
USCG MOBILE BAY  1100                    90/  6/  8 1019.4R
STATE DOCKS      1100            65 69              1020.2R
MEAHER PARK      1200            68      70/  2     1021.7R
FORT MORGAN      1100            73     120/ 15/ 18 1019.5R
12 S ORANGE BCH  1150            74 74  100/ 17/ 21 1020.0R
WVE H/P(F/S)=  4/ 6

PENSACOLA BAY    1100            72 76   80/  3/  6 1021.1R
64 S DAUPHIN ISL 1150            74 74  120/ 17/ 19 1020.3R
WVE H/P(F/S)=  4/ 7

67 S FORT MORGAN 1130            73                 1019.6R
115 SE PENSACOLA 1150            74 75  120/ 19/ 23 1020.5R
WVE H/P(F/S)=  4/ 5

MID GULF/42001   1150            77 79  100/ 16/ 19 1016.9R
WVE H/P(F/S)=  2/ 9

EAST GULF/42003  1150            77 81  100/ 17/ 21 1018.2R
WVE H/P(F/S)=  5/ 7


$$

...NEARBY LOCATIONS

CITY           SKY/WX    TMP DP  RH WIND       PRES   REMARKS
GULFPORT       MOCLDY    67  64  90 NE5       30.14R
6HR MIN TEMP:  65; 6HR MAX TEMP:  73; 6HR PCP:  0.05;

BILOXI         PTCLDY    66  66 100 E8        30.14R
6HR MIN TEMP:  64; 6HR MAX TEMP:  73; 6HR PCP:  0.01;

PASCAGOULA     CLEAR     64  63  96 NE5       30.15R
6HR MIN TEMP:  57; 6HR MAX TEMP:  65;

HATTIESBURG    CLOUDY    59  57  93 CALM      30.19R
6HR MIN TEMP:  56; 6HR MAX TEMP:  60;

LAUREL         CLEAR     61  55  82 N5        30.20R
6HR MIN TEMP:  52; 6HR MAX TEMP:  61;

MERIDIAN       MOSUNNY   54  52  93 NW3       30.22R
6HR MIN TEMP:  51; 6HR MAX TEMP:  59;

MERIDIAN NAS   MOSUNNY   54  51  90 CALM      30.22R
6HR MIN TEMP:  52; 6HR MAX TEMP:  62;

MONTGOMERY     MOSUNNY   61  56  83 CALM      30.24R
6HR MIN TEMP:  57; 6HR MAX TEMP:  63;

MAXWELL AFB    MOSUNNY   60  58  96 NE5       30.23R
6HR MIN TEMP:  56; 6HR MAX TEMP:  61;

TROY           SUNNY     59  56  89 CALM      30.25R
6HR MIN TEMP:  52; 6HR MAX TEMP:  60;

FORT RUCKER    MOSUNNY   60  58  92 CALM      30.23R
6HR MIN TEMP:  55; 6HR MAX TEMP:  60;

DALEVILLE      SUNNY     62  59  93 NE6       30.23R
6HR MIN TEMP:  58; 6HR MAX TEMP:  64;

DOTHAN         SUNNY     62  59  90 E3        30.27R
6HR MIN TEMP:  58; 6HR MAX TEMP:  65;


$$

...OTHER SURROUNDING LOCATIONS...

CITY           SKY/WX    TMP DP  RH WIND       PRES   REMARKS
BIRMINGHAM     MOSUNNY   59  54  83 CALM      30.27R
6HR MIN TEMP:  57; 6HR MAX TEMP:  63;

TUSCALOOSA     SUNNY     57  54  89 CALM      30.24R FOG
6HR MIN TEMP:  55; 6HR MAX TEMP:  58;

COLUMBUS GA    PTSUNNY   57  52  83 CALM      30.26R
6HR MIN TEMP:  55; 6HR MAX TEMP:  64;

PANAMA CITY    NOT AVBL
TALLAHASSEE    SUNNY     62  54  74 E3        30.22R
6HR MIN TEMP:  55; 6HR MAX TEMP:  64;

BATON ROUGE    PTCLDY    59  57  93 CALM      30.13R
6HR MIN TEMP:  57; 6HR MAX TEMP:  64;

NEW ORLEANS    PTCLDY    70  64  81 E5        30.10R
6HR MIN TEMP:  63; 6HR MAX TEMP:  70;

SLIDELL        MOCLDY    61  60  97 N6        30.12R
6HR MIN TEMP:  57; 6HR MAX TEMP:  61;

JACKSON        CLEAR     56  53  90 N3        30.18R
6HR MIN TEMP:  51; 6HR MAX TEMP:  62;

MCCOMB         PTCLDY    61  57  87 VRB5      30.17R
6HR MIN TEMP:  56; 6HR MAX TEMP:  61;


$$

...SURROUNDING MARINE OBSERVATIONS...

STATION/POSITION TIME  SKY/WX   TEMP    WIND        PRES    VSBY
                                AIR SEA DIR/SP/G
                 (UTC)          (F)     (DEG/KT/KT) (MB)    (MI)
WAVELAND         1100            74 74  130/ 10/ 11 1019.3R
PASCAGOULA RGN A 1100            73     120/ 11/ 13 1019.3R
PASCAGOULA PORT  1100               77                N/A
GRAND ISLE       1100            72 77  150/  5/ 12 1018.3R
SOUTHWEST PASS   1200            76     120/ 18/ 19 1019.1R
PILOT STATION E  1100            74 66  120/ 20/ 23 1018.8R
SHELL BEACH      1100            73 75  120/ 10/ 11 1018.3R
PANAMA CITY      1100            64 76   90/  4/  8 1021.2R
APALACHICOLA     1100            73 70  160/ 14/ 18 1021.3R
TYNDALL TOWER C  1200            73     130/ 16/ 18 1021.9R
S APLCHCLA/42036 1150            74 74  120/ 17/ 19 1021.3R
WVE H/P(F/S)=  7/ 6


$$



USA.gov is the U.S. government's official web portal to all federal, state and local government web resources and services.